Preview of NWS' New Version of Forecast
This preview is not operational and should not be used for support decisions.

Terminal Aerodrome Forecast (TAF)

Issued by National Weather Service (NWS)

                            
000
FTUS42 KKEY 142329
TAFEYW
TAF
KEYW 142329Z 1500/1524 35011KT P6SM SCT020
      TEMPO 1500/1502 BKN018=